| time (UTC) | temp F | wind direction | speed MPH | gust MPH | rain 1hr in | rain 24hr in | rain mn in | humidity % | barometer mb |
| 20260903153009 | 42 | 136 | 0.0 | 0.0 | 0.00 | 0.05 | 0.00 | 97 | 986.4 |
| 20260903151506 | 43 | 135 | 0.0 | 0.0 | 0.00 | 0.05 | 0.00 | 97 | 986.4 |
| 20260903150005 | 43 | 134 | 0.0 | 1.0 | 0.00 | 0.05 | 0.00 | 97 | 986.3 |
| 20260903144503 | 43 | 209 | 0.0 | 1.0 | 0.00 | 0.05 | 0.00 | 96 | 986.4 |
| 20260903143110 | 44 | 103 | 0.0 | 1.0 | 0.00 | 0.05 | 0.00 | 96 | 986.4 |
| 20260903141558 | 45 | 117 | 1.0 | 3.0 | 0.00 | 0.05 | 0.00 | 97 | 986.5 |
| 20260903140054 | 44 | 122 | 0.0 | 0.0 | 0.00 | 0.05 | 0.00 | 97 | 986.6 |
| 20260903134554 | 44 | 123 | 0.0 | 0.0 | 0.00 | 0.05 | 0.05 | 96 | 986.6 |
| 20260903133105 | 45 | 122 | 0.0 | 0.0 | 0.00 | 0.05 | 0.05 | 96 | 986.5 |
| 20260903131606 | 45 | 124 | 0.0 | 0.0 | 0.00 | 0.05 | 0.05 | 97 | 986.6 |
| 20260903130104 | 45 | 122 | 0.0 | 0.0 | 0.00 | 0.05 | 0.05 | 96 | 986.5 |
| 20260903124551 | 45 | 119 | 0.0 | 0.0 | 0.00 | 0.05 | 0.05 | 96 | 986.4 |
| 20260903123050 | 46 | 123 | 0.0 | 0.0 | 0.00 | 0.05 | 0.05 | 96 | 986.3 |
| 20260903121549 | 46 | 122 | 0.0 | 0.0 | 0.00 | 0.05 | 0.05 | 97 | 986.2 |
| 20260903120049 | 45 | 188 | 0.0 | 0.0 | 0.00 | 0.05 | 0.05 | 96 | 986.2 |
| 20260903114547 | 46 | 186 | 0.0 | 1.0 | 0.00 | 0.05 | 0.05 | 95 | 986.2 |
| 20260903113046 | 47 | 115 | 0.0 | 2.0 | 0.00 | 0.05 | 0.05 | 95 | 986.0 |
| 20260903111547 | 47 | 129 | 0.0 | 1.0 | 0.00 | 0.05 | 0.05 | 94 | 985.8 |
| 20260903110043 | 48 | 138 | 0.0 | 0.0 | 0.00 | 0.05 | 0.05 | 94 | 985.6 |
| 20260903104541 | 49 | 125 | 0.0 | 2.0 | 0.00 | 0.05 | 0.05 | 94 | 985.4 |
| 20260903103038 | 49 | 149 | 0.0 | 0.0 | 0.00 | 0.05 | 0.05 | 94 | 985.2 |
| 20260903101535 | 50 | 198 | 0.0 | 0.0 | 0.00 | 0.05 | 0.05 | 93 | 984.8 |
| 20260903100036 | 50 | 195 | 0.0 | 0.0 | 0.00 | 0.05 | 0.05 | 93 | 984.7 |
| 20260903094533 | 51 | 245 | 0.0 | 0.0 | 0.00 | 0.05 | 0.05 | 93 | 984.5 |
| 20260903093040 | 52 | 165 | 0.0 | 0.0 | 0.00 | 0.05 | 0.05 | 92 | 984.4 |
| 20260903091532 | 52 | 165 | 0.0 | 1.0 | 0.00 | 0.05 | 0.05 | 91 | 984.1 |
| 20260903090027 | 53 | 264 | 0.0 | 0.0 | 0.00 | 0.05 | 0.05 | 90 | 983.9 |
| 20260903084526 | 53 | 264 | 1.0 | 4.0 | 0.00 | 0.05 | 0.05 | 89 | 983.8 |
| 20260903083028 | 53 | 270 | 1.0 | 6.0 | 0.00 | 0.05 | 0.05 | 90 | 983.5 |
| 20260903081522 | 54 | 107 | 0.0 | 1.0 | 0.00 | 0.05 | 0.05 | 90 | 983.0 |
| 20260903080019 | 55 | 109 | 0.0 | 2.0 | 0.00 | 0.05 | 0.05 | 88 | 982.8 |
| 20260903074517 | 55 | 135 | 1.0 | 4.0 | 0.00 | 0.05 | 0.05 | 88 | 982.6 |
| 20260903073016 | 55 | 95 | 1.0 | 3.0 | 0.00 | 0.05 | 0.05 | 89 | 982.4 |
| 20260903071515 | 56 | 106 | 0.0 | 3.0 | 0.02 | 0.05 | 0.05 | 88 | 982.2 |
| 20260903070013 | 55 | 117 | 0.0 | 2.0 | 0.02 | 0.05 | 0.05 | 89 | 982.1 |
| 20260903064518 | 55 | 97 | 0.0 | 2.0 | 0.02 | 0.05 | 0.05 | 90 | 982.0 |
| 20260903063011 | 54 | 292 | 0.0 | 2.0 | 0.02 | 0.05 | 0.05 | 91 | 981.9 |
| 20260903061515 | 54 | 89 | 1.0 | 5.0 | 0.02 | 0.03 | 0.03 | 90 | 981.8 |
| 20260903060014 | 54 | 230 | 0.0 | 1.0 | 0.02 | 0.03 | 0.03 | 91 | 981.8 |
| 20260903054508 | 54 | 99 | 0.0 | 4.0 | 0.03 | 0.03 | 0.03 | 90 | 981.7 |
| 20260903053007 | 54 | 70 | 0.0 | 5.0 | 0.02 | 0.02 | 0.02 | 89 | 981.7 |
| 20260903051506 | 54 | 285 | 0.0 | 5.0 | 0.02 | 0.02 | 0.02 | 87 | 981.6 |
| 20260903050004 | 55 | 155 | 0.0 | 2.0 | 0.01 | 0.01 | 0.01 | 86 | 981.4 |
| 20260903044507 | 56 | 315 | 0.0 | 6.0 | 0.00 | 0.00 | 0.00 | 83 | 981.3 |
| 20260903043003 | 56 | 345 | 0.0 | 3.0 | 0.00 | 0.00 | 0.00 | 83 | 981.0 |
| 20260903041502 | 56 | 305 | 2.0 | 9.0 | 0.00 | 0.00 | 0.00 | 82 | 981.0 |
| 20260903040002 | 56 | 273 | 2.0 | 13.0 | 0.00 | 0.00 | 0.00 | 81 | 980.9 |
| 20260903034603 | 56 | 257 | 2.0 | 12.0 | 0.00 | 0.00 | 0.00 | 83 | 980.8 |
| 20260903033058 | 56 | 297 | 1.0 | 7.0 | 0.00 | 0.00 | 0.00 | 83 | 980.9 |
| 20260903031559 | 55 | 338 | 5.0 | 15.0 | 0.00 | 0.00 | 0.00 | 85 | 981.0 |
| 20260903030056 | 55 | 299 | 2.0 | 13.0 | 0.00 | 0.00 | 0.00 | 86 | 981.1 |
| 20260903024554 | 55 | 265 | 5.0 | 11.0 | 0.00 | 0.00 | 0.00 | 85 | 981.3 |
| 20260903023113 | 53 | 286 | 1.0 | 6.0 | 0.00 | 0.00 | 0.00 | 89 | 981.2 |
| 20260903021549 | 52 | 270 | 0.0 | 7.0 | 0.00 | 0.00 | 0.00 | 90 | 981.3 |
| 20260903020054 | 51 | 281 | 0.0 | 5.0 | 0.00 | 0.00 | 0.00 | 90 | 981.3 |
| 20260903014545 | 51 | 274 | 0.0 | 3.0 | 0.00 | 0.00 | 0.00 | 89 | 981.2 |
| 20260903013049 | 50 | 96 | 0.0 | 3.0 | 0.00 | 0.00 | 0.00 | 89 | 981.3 |
| 20260903011544 | 50 | 98 | 2.0 | 7.0 | 0.00 | 0.00 | 0.00 | 89 | 981.1 |
| 20260903010042 | 50 | 101 | 3.0 | 7.0 | 0.00 | 0.00 | 0.00 | 89 | 981.1 |
| 20260903004541 | 50 | 101 | 2.0 | 6.0 | 0.00 | 0.00 | 0.00 | 89 | 981.0 |
| 20260903003040 | 50 | 94 | 3.0 | 7.0 | 0.00 | 0.00 | 0.00 | 88 | 980.8 |
| 20260903001539 | 49 | 113 | 1.0 | 7.0 | 0.00 | 0.00 | 0.00 | 88 | 980.8 |
| 20260903000037 | 49 | 37 | 0.0 | 1.0 | 0.00 | 0.00 | 0.00 | 87 | 980.7 |
| 20260902234536 | 49 | 105 | 1.0 | 6.0 | 0.00 | 0.00 | 0.00 | 87 | 980.6 |
| 20260902233036 | 48 | 85 | 2.0 | 7.0 | 0.00 | 0.00 | 0.00 | 88 | 980.6 |
| 20260902231535 | 48 | 117 | 2.0 | 8.0 | 0.00 | 0.00 | 0.00 | 87 | 980.5 |
| 20260902230035 | 49 | 119 | 0.0 | 7.0 | 0.00 | 0.00 | 0.00 | 86 | 980.6 |
| 20260902224533 | 49 | 109 | 0.0 | 3.0 | 0.00 | 0.00 | 0.00 | 86 | 980.7 |
| 20260902223031 | 49 | 110 | 1.0 | 6.0 | 0.00 | 0.00 | 0.00 | 86 | 980.3 |
| 20260902221532 | 48 | 116 | 1.0 | 5.0 | 0.00 | 0.00 | 0.00 | 87 | 980.0 |
| 20260902220030 | 48 | 100 | 1.0 | 3.0 | 0.00 | 0.00 | 0.00 | 87 | 979.9 |
| 20260902214525 | 47 | 122 | 0.0 | 1.0 | 0.00 | 0.00 | 0.00 | 88 | 979.5 |
| 20260902213028 | 47 | 106 | 1.0 | 4.0 | 0.00 | 0.00 | 0.00 | 89 | 979.1 |
| 20260902211520 | 45 | 113 | 1.0 | 2.0 | 0.00 | 0.00 | 0.00 | 92 | 979.0 |
| 20260902210020 | 45 | 99 | 0.0 | 2.0 | 0.00 | 0.00 | 0.00 | 93 | 978.8 |
| 20260902204517 | 44 | 99 | 0.0 | 2.0 | 0.00 | 0.00 | 0.00 | 94 | 978.7 |
| 20260902203015 | 44 | 97 | 0.0 | 3.0 | 0.00 | 0.00 | 0.00 | 95 | 978.6 |
| 20260902201519 | 43 | 118 | 0.0 | 0.0 | 0.00 | 0.00 | 0.00 | 95 | 978.5 |
| 20260902200012 | 43 | 117 | 0.0 | 0.0 | 0.00 | 0.00 | 0.00 | 95 | 978.2 |
| 20260902194516 | 44 | 105 | 0.0 | 1.0 | 0.00 | 0.00 | 0.00 | 95 | 978.0 |
| 20260902193009 | 44 | 105 | 0.0 | 1.0 | 0.00 | 0.00 | 0.00 | 94 | 977.9 |
| 20260902191513 | 44 | 99 | 0.0 | 2.0 | 0.00 | 0.00 | 0.00 | 95 | 977.7 |
| 20260902190007 | 43 | 110 | 0.0 | 0.0 | 0.00 | 0.00 | 0.00 | 94 | 977.9 |
| 20260902184507 | 43 | 96 | 0.0 | 0.0 | 0.00 | 0.00 | 0.00 | 94 | 977.8 |
| 20260902183005 | 43 | 95 | 0.0 | 0.0 | 0.00 | 0.00 | 0.00 | 93 | 977.2 |
| 20260902181503 | 44 | 97 | 0.0 | 1.0 | 0.00 | 0.00 | 0.00 | 93 | 977.1 |
| 20260902174559 | 45 | 93 | 0.0 | 1.0 | 0.00 | 0.00 | 0.00 | 91 | 977.0 |
| 20260902173056 | 46 | 94 | 0.0 | 0.0 | 0.00 | 0.00 | 0.00 | 90 | 977.1 |
| 20260902171605 | 47 | 89 | 0.0 | 2.0 | 0.00 | 0.00 | 0.00 | 90 | 977.0 |
| 20260902170050 | 47 | 108 | 0.0 | 2.0 | 0.00 | 0.00 | 0.00 | 89 | 977.2 |
| 20260902164546 | 48 | 86 | 0.0 | 3.0 | 0.00 | 0.00 | 0.00 | 88 | 977.2 |
| 20260902163043 | 49 | 103 | 2.0 | 4.0 | 0.00 | 0.00 | 0.00 | 87 | 977.7 |
| 20260902161540 | 50 | 176 | 0.0 | 1.0 | 0.00 | 0.00 | 0.00 | 89 | 978.2 |
| 20260902160046 | 50 | 222 | 0.0 | 0.0 | 0.00 | 0.00 | 0.00 | 88 | 978.2 |
| 20260902154535 | 50 | 223 | 0.0 | 0.0 | 0.00 | 0.00 | 0.00 | 88 | 978.2 |